Preview of NWS' New Version of Forecast
This preview is not operational and should not be used for support decisions.

Regional Weather Roundup (RWR)

Issued by National Weather Service (NWS)

                            
000
ASUS45 KCYS 231110
RWRWY 

WYOMING REGIONAL WEATHER ROUNDUP
NATIONAL WEATHER SERVICE CHEYENNE WY
400 AM MST SAT FEB 23 2019

NOTE:  "FAIR" INDICATES FEW OR NO CLOUDS BELOW 12,000 FEET
WITH NO SIGNIFICANT WEATHER AND/OR OBSTRUCTIONS TO VISIBILITY.

WYZ001-231200-
...YELLOWSTONE NATIONAL PARK...
  
CITY           SKY/WX    TMP DP  RH WIND       PRES   REMARKS
LK YELLOWSTONE   N/A      2  -2  83 CALM      29.88S                  
W YELLOWSTONE  NOT AVBL                                               

$$
WYZ002>013-054>058-071-098>099-231200-
...NORTHERN WYOMING...
  
CITY           SKY/WX    TMP DP  RH WIND       PRES   REMARKS
JACKSON        LGT SNOW  -2  -6  83 N9        29.97S FOG     WCI -18  
CODY           CLEAR     20   0  41 SW18G25   29.81R WCI   5          
GREYBULL       CLEAR      4   0  83 E3        29.89R                  
WORLAND        PTCLDY     1  -1  91 CALM      29.87S                  
SHERIDAN       CLEAR      2  -3  80 CALM      29.82S                  
BUFFALO        PTCLDY    15  -1  49 S8        29.78F WCI   4          
GILLETTE       PTCLDY    -5 -10  79 CALM      29.82S                  
HULETT         FAIR       3   0  85 MISG      29.83F                  
NEWCASTLE        N/A      1  -4  78 CALM      29.86S                  

$$
WYZ014>020-022>026-101>103-231200-
...CENTRAL WYOMING...
  
CITY           SKY/WX    TMP DP  RH WIND       PRES   REMARKS
BIG PINEY      PTCLDY   -11 -18  71 CALM      29.92R                  
PINEDALE       PTCLDY    -4  -8  84 NW16      29.91R WCI -25          
DUBOIS         FAIR       5  -4  66 NW23G29   29.82S WCI -17          
LANDER         CLEAR      6  -3  66 W7        29.82S WCI  -6          
RIVERTON       PTCLDY     3  -3  76 VRB3      29.83S                  
CASPER         PTCLDY    10   3  73 S23       29.82F WCI -10          
DOUGLAS        MOCLDY     3   0  87 CALM      29.81F                  

$$
WYZ021-027>030-104>119-231200-
...SOUTHERN WYOMING...
  
CITY           SKY/WX    TMP DP  RH WIND       PRES   REMARKS
EVANSTON       PTCLDY     2  -3  80 SW9       29.98R WCI -13          
KEMMERER       CLEAR      1  -4  78 NW9       29.93S WCI -14          
FORT BRIDGER   FAIR       6   0  74 S10       29.98S WCI  -8          
ROCK SPRINGS   PTCLDY     5  -4  66 VRB3      29.92R                  
DIXON          FAIR      -3  -8  79 SE3       29.98R                  
RAWLINS        PTCLDY     5  -3  69 SW20      29.87S WCI -15          
SARATOGA       FAIR       3   0  85 CALM      29.87S                  
LARAMIE        MOCLDY     6   2  83 E3        29.77F                  
CHEYENNE       CLOUDY    20  10  65 NW15      29.76S WCI   6          
TORRINGTON     CLOUDY    14  12  92 NW8       29.83S WCI   3          
PINE BLUFFS    FAIR      18  14  86 NW6       29.78S WCI   9          

$$